Location: Agadir Irigdalene
(31.2522°N, 8.7797°W)
Time: 05:33:55
(UTC+00:00)

Cosmos 1500 - Pass Details

Date: 01 December 2020
Orbit: 498 x 519 km, 82.5° (Epoch: 25 January)

Event Time Altitude Azimuth Distance (km) Brightness Sun altitude
Rises 18:40:01 0° 1° (N) 2,633 6.6 -14.3°
Reaches altitude 10° 18:42:13 10° 8° (N) 1,746 5.6 -14.8°
Maximum altitude 18:45:54 44° 82° (E) 718 3.4 -15.6°
Drops below altitude 10° 18:49:34 10° 155° (SSE) 1,742 5.8 -16.3°
Sets 18:51:46 0° 162° (SSE) 2,626 6.8 -16.8°
